contact:dominique.lefevre@mio.osupytheas.fr, maurice.libes@osupytheas.fr, didier.mallarino@osupytheas.fr
Project:EMSO http://www.emso-fr.org/EMSO-France
Depth: 2436.0 m
Title:EMSO Ligure Ouest : Data MII capteur MICROCAT
DateTime_Computer,Latitude,Longitude,Temperature,Conductivity,Pressure,DateTime_Instrument
DateTime_Computer,Latitude,Longitude,degC,S m-1,dbar,DateTime_Instrument
2021-10-10T00:03:01Z,42.805,6.029,13.3015,4.60067,2470.413,2021-10-10T02:04:24Z
2021-10-10T00:06:04Z,42.805,6.029,13.3015,4.60054,2470.39,2021-10-10T02:07:27Z
2021-10-10T00:09:07Z,42.805,6.029,13.3036,4.60063,2470.413,2021-10-10T02:10:30Z
2021-10-10T00:12:11Z,42.805,6.029,13.3009,4.60068,2470.413,2021-10-10T02:13:34Z
2021-10-10T00:15:14Z,42.805,6.029,13.3028,4.60054,2470.427,2021-10-10T02:16:37Z
2021-10-10T00:18:17Z,42.805,6.029,13.3029,4.60059,2470.39,2021-10-10T02:19:40Z
2021-10-10T00:21:20Z,42.805,6.029,13.3007,4.60074,2470.38,2021-10-10T02:22:43Z
2021-10-10T00:24:23Z,42.805,6.029,13.3036,4.60055,2470.39,2021-10-10T02:25:46Z
2021-10-10T00:27:26Z,42.805,6.029,13.3022,4.60046,2470.413,2021-10-10T02:28:49Z
2021-10-10T00:30:29Z,42.805,6.029,13.3029,4.60080,2470.366,2021-10-10T02:31:52Z
2021-10-10T00:33:32Z,42.805,6.029,13.3015,4.60079,2470.427,2021-10-10T02:34:55Z
2021-10-10T00:36:36Z,42.805,6.029,13.3019,4.60084,2470.427,2021-10-10T02:37:59Z
2021-10-10T00:39:39Z,42.805,6.029,13.3028,4.60083,2470.404,2021-10-10T02:41:02Z
2021-10-10T00:42:42Z,42.805,6.029,13.3033,4.60072,2470.404,2021-10-10T02:44:05Z
2021-10-10T00:45:45Z,42.805,6.029,13.3028,4.60075,2470.427,2021-10-10T02:47:08Z
2021-10-10T00:48:48Z,42.805,6.029,13.3027,4.60082,2470.404,2021-10-10T02:50:11Z
2021-10-10T00:51:51Z,42.805,6.029,13.3032,4.60094,2470.427,2021-10-10T02:53:14Z
2021-10-10T00:54:54Z,42.805,6.029,13.3024,4.60079,2470.366,2021-10-10T02:56:17Z
2021-10-10T00:57:57Z,42.805,6.029,13.3035,4.60087,2470.39,2021-10-10T02:59:20Z
2021-10-10T01:01:01Z,42.805,6.029,13.3023,4.60078,2470.38,2021-10-10T03:02:24Z
2021-10-10T01:04:04Z,42.805,6.029,13.3026,4.60081,2470.413,2021-10-10T03:05:27Z
2021-10-10T01:07:07Z,42.805,6.029,13.3011,4.60063,2470.38,2021-10-10T03:08:30Z
2021-10-10T01:10:10Z,42.805,6.029,13.3034,4.60074,2470.404,2021-10-10T03:11:33Z
2021-10-10T01:13:13Z,42.805,6.029,13.3024,4.60087,2470.357,2021-10-10T03:14:36Z
2021-10-10T01:16:16Z,42.805,6.029,13.3015,4.60068,2470.39,2021-10-10T03:17:39Z
2021-10-10T01:19:19Z,42.805,6.029,13.3033,4.60071,2470.366,2021-10-10T03:20:42Z
2021-10-10T01:22:22Z,42.805,6.029,13.3024,4.60047,2470.366,2021-10-10T03:23:45Z
2021-10-10T01:25:25Z,42.805,6.029,13.3033,4.60042,2470.38,2021-10-10T03:26:49Z
2021-10-10T01:28:29Z,42.805,6.029,13.3023,4.60039,2470.404,2021-10-10T03:29:52Z
2021-10-10T01:31:32Z,42.805,6.029,13.3019,4.60040,2470.357,2021-10-10T03:32:55Z
2021-10-10T01:34:35Z,42.805,6.029,13.3009,4.60044,2470.343,2021-10-10T03:35:58Z
2021-10-10T01:37:38Z,42.805,6.029,13.3014,4.60040,2470.343,2021-10-10T03:39:01Z
2021-10-10T01:40:41Z,42.805,6.029,13.3016,4.60034,2470.366,2021-10-10T03:42:04Z
2021-10-10T01:43:44Z,42.805,6.029,13.3014,4.60031,2470.343,2021-10-10T03:45:07Z
2021-10-10T01:46:47Z,42.805,6.029,13.3015,4.60054,2470.357,2021-10-10T03:48:10Z
2021-10-10T01:49:50Z,42.805,6.029,13.3021,4.60045,2470.343,2021-10-10T03:51:13Z
2021-10-10T01:52:54Z,42.805,6.029,13.3031,4.60039,2470.334,2021-10-10T03:54:17Z
2021-10-10T01:55:57Z,42.805,6.029,13.3022,4.60043,2470.38,2021-10-10T03:57:20Z
2021-10-10T01:59:00Z,42.805,6.029,13.3022,4.60029,2470.334,2021-10-10T04:00:23Z
2021-10-10T02:02:03Z,42.805,6.029,13.3017,4.60033,2470.357,2021-10-10T04:03:26Z
2021-10-10T02:05:06Z,42.805,6.029,13.3015,4.60037,2470.32,2021-10-10T04:06:29Z
2021-10-10T02:08:09Z,42.805,6.029,13.3011,4.60030,2470.357,2021-10-10T04:09:32Z
2021-10-10T02:11:12Z,42.805,6.029,13.3022,4.60033,2470.343,2021-10-10T04:12:35Z
2021-10-10T02:14:15Z,42.805,6.029,13.3004,4.60044,2470.357,2021-10-10T04:15:38Z
2021-10-10T02:17:19Z,42.805,6.029,13.3014,4.60032,2470.357,2021-10-10T04:18:42Z
2021-10-10T02:20:22Z,42.805,6.029,13.3015,4.60031,2470.357,2021-10-10T04:21:45Z
2021-10-10T02:23:25Z,42.805,6.029,13.3017,4.60037,2470.357,2021-10-10T04:24:48Z
2021-10-10T02:26:28Z,42.805,6.029,13.3031,4.60038,2470.334,2021-10-10T04:27:51Z
2021-10-10T02:29:31Z,42.805,6.029,13.3015,4.60037,2470.343,2021-10-10T04:30:54Z
2021-10-10T02:32:34Z,42.805,6.029,13.3012,4.60035,2470.334,2021-10-10T04:33:57Z
2021-10-10T02:35:37Z,42.805,6.029,13.3028,4.60046,2470.343,2021-10-10T04:37:00Z
2021-10-10T02:38:40Z,42.805,6.029,13.3025,4.60052,2470.334,2021-10-10T04:40:03Z
2021-10-10T02:41:44Z,42.805,6.029,13.3015,4.60041,2470.32,2021-10-10T04:43:07Z
2021-10-10T02:44:47Z,42.805,6.029,13.3027,4.60026,2470.32,2021-10-10T04:46:10Z
2021-10-10T02:47:50Z,42.805,6.029,13.3013,4.60026,2470.32,2021-10-10T04:49:13Z
2021-10-10T02:50:53Z,42.805,6.029,13.3026,4.60025,2470.334,2021-10-10T04:52:16Z
2021-10-10T02:53:56Z,42.805,6.029,13.3011,4.60034,2470.297,2021-10-10T04:55:19Z
2021-10-10T02:56:59Z,42.805,6.029,13.3016,4.60046,2470.334,2021-10-10T04:58:22Z
2021-10-10T03:00:02Z,42.805,6.029,13.3023,4.60046,2470.32,2021-10-10T05:01:25Z
2021-10-10T03:03:05Z,42.805,6.029,13.3021,4.60032,2470.357,2021-10-10T05:04:28Z
2021-10-10T03:06:09Z,42.805,6.029,13.3019,4.60031,2470.357,2021-10-10T05:07:32Z
2021-10-10T03:09:12Z,42.805,6.029,13.3019,4.60044,2470.297,2021-10-10T05:10:35Z
2021-10-10T03:12:15Z,42.805,6.029,13.3026,4.60039,2470.297,2021-10-10T05:13:38Z
2021-10-10T03:15:18Z,42.805,6.029,13.3014,4.60067,2470.334,2021-10-10T05:16:41Z
2021-10-10T03:18:21Z,42.805,6.029,13.3048,4.60044,2470.32,2021-10-10T05:19:44Z
2021-10-10T03:21:24Z,42.805,6.029,13.3040,4.60031,2470.32,2021-10-10T05:22:47Z
2021-10-10T03:24:27Z,42.805,6.029,13.3021,4.60036,2470.334,2021-10-10T05:25:50Z
2021-10-10T03:27:30Z,42.805,6.029,13.3013,4.60034,2470.297,2021-10-10T05:28:53Z
2021-10-10T03:30:34Z,42.805,6.029,13.3011,4.60040,2470.334,2021-10-10T05:31:57Z
2021-10-10T03:33:37Z,42.805,6.029,13.3026,4.60035,2470.32,2021-10-10T05:35:00Z
2021-10-10T03:36:40Z,42.805,6.029,13.3019,4.60045,2470.32,2021-10-10T05:38:03Z
2021-10-10T03:39:43Z,42.805,6.029,13.3031,4.60045,2470.343,2021-10-10T05:41:06Z
2021-10-10T03:42:46Z,42.805,6.029,13.3020,4.60038,2470.273,2021-10-10T05:44:09Z
2021-10-10T03:45:49Z,42.805,6.029,13.3040,4.60042,2470.32,2021-10-10T05:47:12Z
2021-10-10T03:48:52Z,42.805,6.029,13.3013,4.60047,2470.32,2021-10-10T05:50:15Z
2021-10-10T03:51:55Z,42.805,6.029,13.3028,4.60054,2470.273,2021-10-10T05:53:18Z
2021-10-10T03:54:59Z,42.805,6.029,13.3021,4.60047,2470.297,2021-10-10T05:56:22Z
2021-10-10T03:58:02Z,42.805,6.029,13.3014,4.60042,2470.334,2021-10-10T05:59:25Z
2021-10-10T04:01:05Z,42.805,6.029,13.3017,4.60033,2470.297,2021-10-10T06:02:28Z
2021-10-10T04:04:08Z,42.805,6.029,13.3037,4.60046,2470.31,2021-10-10T06:05:31Z
2021-10-10T04:07:11Z,42.805,6.029,13.3026,4.60058,2470.32,2021-10-10T06:08:34Z
2021-10-10T04:10:14Z,42.805,6.029,13.3020,4.60054,2470.334,2021-10-10T06:11:37Z
2021-10-10T04:13:17Z,42.805,6.029,13.3021,4.60051,2470.32,2021-10-10T06:14:40Z
2021-10-10T04:16:20Z,42.805,6.029,13.3028,4.60039,2470.31,2021-10-10T06:17:43Z
2021-10-10T04:19:23Z,42.805,6.029,13.3021,4.60044,2470.334,2021-10-10T06:20:47Z
2021-10-10T04:22:27Z,42.805,6.029,13.3022,4.60044,2470.297,2021-10-10T06:23:50Z
2021-10-10T04:25:30Z,42.805,6.029,13.3034,4.60058,2470.334,2021-10-10T06:26:53Z
2021-10-10T04:28:33Z,42.805,6.029,13.3030,4.60049,2470.297,2021-10-10T06:29:56Z
2021-10-10T04:31:36Z,42.805,6.029,13.3054,4.60036,2470.32,2021-10-10T06:32:59Z
2021-10-10T04:34:39Z,42.805,6.029,13.3035,4.60049,2470.32,2021-10-10T06:36:02Z
2021-10-10T04:37:42Z,42.805,6.029,13.3037,4.60062,2470.334,2021-10-10T06:39:05Z
2021-10-10T04:40:45Z,42.805,6.029,13.3027,4.60036,2470.31,2021-10-10T06:42:08Z
2021-10-10T04:43:48Z,42.805,6.029,13.3026,4.60054,2470.297,2021-10-10T06:45:11Z
2021-10-10T04:46:52Z,42.805,6.029,13.3023,4.60054,2470.32,2021-10-10T06:48:15Z
2021-10-10T04:49:55Z,42.805,6.029,13.3022,4.60047,2470.31,2021-10-10T06:51:18Z
2021-10-10T04:52:58Z,42.805,6.029,13.3036,4.60054,2470.334,2021-10-10T06:54:21Z
2021-10-10T04:56:01Z,42.805,6.029,13.3031,4.60034,2470.287,2021-10-10T06:57:24Z
2021-10-10T04:59:04Z,42.805,6.029,13.3026,4.60043,2470.31,2021-10-10T07:00:27Z
2021-10-10T05:02:07Z,42.805,6.029,13.3036,4.60046,2470.31,2021-10-10T07:03:30Z
2021-10-10T05:05:10Z,42.805,6.029,13.3034,4.60062,2470.297,2021-10-10T07:06:33Z
2021-10-10T05:08:13Z,42.805,6.029,13.3029,4.60050,2470.273,2021-10-10T07:09:36Z
2021-10-10T05:11:17Z,42.805,6.029,13.3014,4.60049,2470.357,2021-10-10T07:12:40Z
2021-10-10T05:14:20Z,42.805,6.029,13.3027,4.60031,2470.334,2021-10-10T07:15:43Z
2021-10-10T05:17:23Z,42.805,6.029,13.3023,4.60034,2470.32,2021-10-10T07:18:46Z
2021-10-10T05:20:26Z,42.805,6.029,13.3032,4.60039,2470.343,2021-10-10T07:21:49Z
2021-10-10T05:23:29Z,42.805,6.029,13.3025,4.60044,2470.334,2021-10-10T07:24:52Z
2021-10-10T05:26:32Z,42.805,6.029,13.3029,4.60036,2470.32,2021-10-10T07:27:55Z
2021-10-10T05:29:35Z,42.805,6.029,13.3031,4.60045,2470.357,2021-10-10T07:30:58Z
2021-10-10T05:32:38Z,42.805,6.029,13.3035,4.60046,2470.334,2021-10-10T07:34:01Z
2021-10-10T05:35:42Z,42.805,6.029,13.3032,4.60046,2470.32,2021-10-10T07:37:05Z
2021-10-10T05:38:45Z,42.805,6.029,13.3029,4.60044,2470.334,2021-10-10T07:40:08Z
2021-10-10T05:41:48Z,42.805,6.029,13.3035,4.60053,2470.357,2021-10-10T07:43:11Z
2021-10-10T05:44:51Z,42.805,6.029,13.3036,4.60052,2470.343,2021-10-10T07:46:14Z
2021-10-10T05:47:54Z,42.805,6.029,13.3038,4.60067,2470.357,2021-10-10T07:49:17Z
2021-10-10T05:50:57Z,42.805,6.029,13.3058,4.60057,2470.32,2021-10-10T07:52:20Z
2021-10-10T05:54:00Z,42.805,6.029,13.3038,4.60073,2470.357,2021-10-10T07:55:23Z
2021-10-10T05:57:03Z,42.805,6.029,13.3056,4.60057,2470.366,2021-10-10T07:58:26Z
2021-10-10T06:00:07Z,42.805,6.029,13.3036,4.60069,2470.404,2021-10-10T08:01:30Z
2021-10-10T06:03:10Z,42.805,6.029,13.3051,4.60062,2470.343,2021-10-10T08:04:33Z
2021-10-10T06:06:13Z,42.805,6.029,13.3036,4.60035,2470.394,2021-10-10T08:07:36Z
2021-10-10T06:09:16Z,42.805,6.029,13.3027,4.60055,2470.357,2021-10-10T08:10:39Z
2021-10-10T06:12:19Z,42.805,6.029,13.3029,4.60049,2470.38,2021-10-10T08:13:42Z
2021-10-10T06:15:22Z,42.805,6.029,13.3048,4.60058,2470.366,2021-10-10T08:16:45Z
2021-10-10T06:18:25Z,42.805,6.029,13.3036,4.60045,2470.39,2021-10-10T08:19:48Z
2021-10-10T06:21:28Z,42.805,6.029,13.3020,4.60057,2470.39,2021-10-10T08:22:51Z
2021-10-10T06:24:31Z,42.805,6.029,13.3028,4.60079,2470.404,2021-10-10T08:25:55Z
2021-10-10T06:27:35Z,42.805,6.029,13.3032,4.60039,2470.39,2021-10-10T08:28:58Z
2021-10-10T06:30:38Z,42.805,6.029,13.3028,4.60059,2470.38,2021-10-10T08:32:01Z
2021-10-10T06:33:41Z,42.805,6.029,13.3021,4.60063,2470.39,2021-10-10T08:35:04Z
2021-10-10T06:36:44Z,42.805,6.029,13.3051,4.60047,2470.404,2021-10-10T08:38:07Z
2021-10-10T06:39:47Z,42.805,6.029,13.3029,4.60033,2470.427,2021-10-10T08:41:10Z
2021-10-10T06:42:50Z,42.805,6.029,13.3020,4.60059,2470.39,2021-10-10T08:44:13Z
2021-10-10T06:45:53Z,42.805,6.029,13.3032,4.60039,2470.413,2021-10-10T08:47:16Z
2021-10-10T06:48:56Z,42.805,6.029,13.3036,4.60064,2470.45,2021-10-10T08:50:19Z
2021-10-10T06:52:00Z,42.805,6.029,13.3036,4.60048,2470.437,2021-10-10T08:53:23Z
2021-10-10T06:55:03Z,42.805,6.029,13.3048,4.60031,2470.427,2021-10-10T08:56:26Z
2021-10-10T06:58:06Z,42.805,6.029,13.3017,4.60052,2470.437,2021-10-10T08:59:29Z
2021-10-10T07:01:09Z,42.805,6.029,13.3052,4.60064,2470.427,2021-10-10T09:02:32Z
2021-10-10T07:04:12Z,42.805,6.029,13.3017,4.60053,2470.46,2021-10-10T09:05:35Z
2021-10-10T07:07:15Z,42.805,6.029,13.3031,4.60079,2470.45,2021-10-10T09:08:38Z
2021-10-10T07:10:18Z,42.805,6.029,13.3045,4.60059,2470.437,2021-10-10T09:11:41Z
2021-10-10T07:13:21Z,42.805,6.029,13.3043,4.60063,2470.474,2021-10-10T09:14:44Z
2021-10-10T07:16:25Z,42.805,6.029,13.3046,4.60094,2470.437,2021-10-10T09:17:48Z
2021-10-10T07:19:28Z,42.805,6.029,13.3050,4.60048,2470.45,2021-10-10T09:20:51Z
2021-10-10T07:22:31Z,42.805,6.029,13.3034,4.60079,2470.474,2021-10-10T09:23:54Z
2021-10-10T07:25:34Z,42.805,6.029,13.3039,4.60084,2470.45,2021-10-10T09:26:57Z
2021-10-10T07:28:37Z,42.805,6.029,13.3047,4.60056,2470.437,2021-10-10T09:30:00Z
2021-10-10T07:31:40Z,42.805,6.029,13.3057,4.60129,2470.437,2021-10-10T09:33:03Z
2021-10-10T07:34:43Z,42.805,6.029,13.3063,4.60091,2470.483,2021-10-10T09:36:06Z
2021-10-10T07:37:46Z,42.805,6.029,13.3072,4.60122,2470.474,2021-10-10T09:39:09Z
2021-10-10T07:40:50Z,42.805,6.029,13.3082,4.60088,2470.507,2021-10-10T09:42:13Z
2021-10-10T07:43:53Z,42.805,6.029,13.3080,4.60061,2470.474,2021-10-10T09:45:16Z
2021-10-10T07:46:56Z,42.805,6.029,13.3034,4.60093,2470.474,2021-10-10T09:48:19Z
2021-10-10T07:49:59Z,42.805,6.029,13.3040,4.60106,2470.474,2021-10-10T09:51:22Z
2021-10-10T07:53:02Z,42.805,6.029,13.3057,4.60121,2470.483,2021-10-10T09:54:25Z
2021-10-10T07:56:05Z,42.805,6.029,13.3085,4.60119,2470.52,2021-10-10T09:57:28Z
2021-10-10T07:59:08Z,42.805,6.029,13.3070,4.60108,2470.507,2021-10-10T10:00:31Z
2021-10-10T08:02:11Z,42.805,6.029,13.3075,4.60068,2470.52,2021-10-10T10:03:34Z
2021-10-10T08:05:15Z,42.805,6.029,13.3015,4.60093,2470.483,2021-10-10T10:06:38Z
2021-10-10T08:08:18Z,42.805,6.029,13.3039,4.60041,2470.483,2021-10-10T10:09:41Z
2021-10-10T08:11:21Z,42.805,6.029,13.3062,4.60084,2470.52,2021-10-10T10:12:44Z
2021-10-10T08:14:24Z,42.805,6.029,13.3072,4.60094,2470.507,2021-10-10T10:15:47Z
2021-10-10T08:17:27Z,42.805,6.029,13.3043,4.60074,2470.507,2021-10-10T10:18:50Z
2021-10-10T08:20:30Z,42.805,6.029,13.3052,4.60115,2470.52,2021-10-10T10:21:53Z
2021-10-10T08:23:33Z,42.805,6.029,13.3049,4.60110,2470.544,2021-10-10T10:24:56Z
2021-10-10T08:26:36Z,42.805,6.029,13.3073,4.60078,2470.53,2021-10-10T10:27:59Z
2021-10-10T08:29:40Z,42.805,6.029,13.3041,4.60071,2470.53,2021-10-10T10:31:03Z
2021-10-10T08:32:43Z,42.805,6.029,13.3036,4.60087,2470.507,2021-10-10T10:34:06Z
2021-10-10T08:35:46Z,42.805,6.029,13.3054,4.60126,2470.507,2021-10-10T10:37:09Z
2021-10-10T08:38:49Z,42.805,6.029,13.3078,4.60086,2470.507,2021-10-10T10:40:12Z
2021-10-10T08:41:52Z,42.805,6.029,13.3054,4.60098,2470.53,2021-10-10T10:43:15Z
2021-10-10T08:44:55Z,42.805,6.029,13.3057,4.60107,2470.497,2021-10-10T10:46:18Z
2021-10-10T08:47:58Z,42.805,6.029,13.3054,4.60052,2470.544,2021-10-10T10:49:21Z
2021-10-10T08:51:01Z,42.805,6.029,13.3056,4.60095,2470.53,2021-10-10T10:52:24Z
2021-10-10T08:54:05Z,42.805,6.029,13.3039,4.60078,2470.544,2021-10-10T10:55:28Z
2021-10-10T08:57:08Z,42.805,6.029,13.3047,4.60069,2470.53,2021-10-10T10:58:31Z
2021-10-10T09:00:11Z,42.805,6.029,13.3051,4.60079,2470.53,2021-10-10T11:01:34Z
2021-10-10T09:03:14Z,42.805,6.029,13.3056,4.60090,2470.567,2021-10-10T11:04:37Z
2021-10-10T09:06:17Z,42.805,6.029,13.3043,4.60119,2470.553,2021-10-10T11:07:40Z
2021-10-10T09:09:20Z,42.805,6.029,13.3076,4.60077,2470.544,2021-10-10T11:10:43Z
2021-10-10T09:12:23Z,42.805,6.029,13.3059,4.60078,2470.544,2021-10-10T11:13:46Z
2021-10-10T09:15:26Z,42.805,6.029,13.3060,4.60074,2470.53,2021-10-10T11:16:49Z
2021-10-10T09:18:30Z,42.805,6.029,13.3026,4.60102,2470.553,2021-10-10T11:19:53Z
2021-10-10T09:21:33Z,42.805,6.029,13.3055,4.60118,2470.53,2021-10-10T11:22:56Z
2021-10-10T09:24:36Z,42.805,6.029,13.3063,4.60099,2470.53,2021-10-10T11:25:59Z
2021-10-10T09:27:39Z,42.805,6.029,13.3058,4.60103,2470.544,2021-10-10T11:29:02Z
2021-10-10T09:30:42Z,42.805,6.029,13.3069,4.60130,2470.53,2021-10-10T11:32:05Z
2021-10-10T09:33:45Z,42.805,6.029,13.3067,4.60102,2470.52,2021-10-10T11:35:08Z
2021-10-10T09:36:48Z,42.805,6.029,13.3058,4.60054,2470.52,2021-10-10T11:38:11Z
2021-10-10T09:39:51Z,42.805,6.029,13.3045,4.60111,2470.53,2021-10-10T11:41:15Z
2021-10-10T09:42:55Z,42.805,6.029,13.3079,4.60122,2470.544,2021-10-10T11:44:18Z
2021-10-10T09:45:58Z,42.805,6.029,13.3060,4.60144,2470.52,2021-10-10T11:47:21Z
2021-10-10T09:49:01Z,42.805,6.029,13.3062,4.60070,2470.553,2021-10-10T11:50:24Z
2021-10-10T09:52:04Z,42.805,6.029,13.3053,4.60077,2470.52,2021-10-10T11:53:27Z
2021-10-10T09:55:07Z,42.805,6.029,13.3054,4.60116,2470.544,2021-10-10T11:56:30Z
2021-10-10T09:58:10Z,42.805,6.029,13.3059,4.60120,2470.53,2021-10-10T11:59:33Z
2021-10-10T10:01:13Z,42.805,6.029,13.3043,4.60091,2470.567,2021-10-10T12:02:36Z
2021-10-10T10:04:16Z,42.805,6.029,13.3043,4.60106,2470.52,2021-10-10T12:05:40Z
2021-10-10T10:07:20Z,42.805,6.029,13.3064,4.60077,2470.553,2021-10-10T12:08:43Z
2021-10-10T10:10:23Z,42.805,6.029,13.3053,4.60090,2470.52,2021-10-10T12:11:46Z
2021-10-10T10:13:26Z,42.805,6.029,13.3040,4.60070,2470.507,2021-10-10T12:14:49Z
2021-10-10T10:16:29Z,42.805,6.029,13.3051,4.60091,2470.544,2021-10-10T12:17:52Z
2021-10-10T10:19:32Z,42.805,6.029,13.3033,4.60072,2470.53,2021-10-10T12:20:55Z
2021-10-10T10:22:36Z,42.805,6.029,13.3048,4.60104,2470.507,2021-10-10T12:23:59Z
2021-10-10T10:25:39Z,42.805,6.029,13.3063,4.60126,2470.544,2021-10-10T12:27:02Z
2021-10-10T10:28:42Z,42.805,6.029,13.3034,4.60082,2470.52,2021-10-10T12:30:05Z
2021-10-10T10:31:45Z,42.805,6.029,13.3048,4.60123,2470.52,2021-10-10T12:33:08Z
2021-10-10T10:34:48Z,42.805,6.029,13.3041,4.60131,2470.544,2021-10-10T12:36:11Z
2021-10-10T10:37:52Z,42.805,6.029,13.3048,4.60127,2470.53,2021-10-10T12:39:15Z
2021-10-10T10:40:55Z,42.805,6.029,13.3078,4.60108,2470.507,2021-10-10T12:42:18Z
2021-10-10T10:43:58Z,42.805,6.029,13.3067,4.60126,2470.497,2021-10-10T12:45:21Z
2021-10-10T10:47:01Z,42.805,6.029,13.3029,4.60133,2470.507,2021-10-10T12:48:24Z
2021-10-10T10:50:04Z,42.805,6.029,13.3054,4.60059,2470.52,2021-10-10T12:51:27Z
2021-10-10T10:53:07Z,42.805,6.029,13.3055,4.60110,2470.52,2021-10-10T12:54:30Z
2021-10-10T10:56:10Z,42.805,6.029,13.3067,4.60129,2470.52,2021-10-10T12:57:33Z
2021-10-10T10:59:13Z,42.805,6.029,13.3078,4.60105,2470.497,2021-10-10T13:00:36Z
2021-10-10T11:02:17Z,42.805,6.029,13.3048,4.60098,2470.507,2021-10-10T13:03:40Z
2021-10-10T11:05:20Z,42.805,6.029,13.3061,4.60103,2470.544,2021-10-10T13:06:43Z
2021-10-10T11:08:23Z,42.805,6.029,13.3066,4.60095,2470.544,2021-10-10T13:09:46Z
2021-10-10T11:11:26Z,42.805,6.029,13.3034,4.60079,2470.507,2021-10-10T13:12:49Z
2021-10-10T11:14:29Z,42.805,6.029,13.3058,4.60127,2470.507,2021-10-10T13:15:52Z
2021-10-10T11:17:32Z,42.805,6.029,13.3060,4.60115,2470.52,2021-10-10T13:18:55Z
2021-10-10T11:20:35Z,42.805,6.029,13.3040,4.60125,2470.52,2021-10-10T13:21:58Z
2021-10-10T11:23:38Z,42.805,6.029,13.3046,4.60105,2470.483,2021-10-10T13:25:02Z
2021-10-10T11:26:42Z,42.805,6.029,13.3050,4.60088,2470.497,2021-10-10T13:28:05Z
2021-10-10T11:29:45Z,42.805,6.029,13.3039,4.60055,2470.53,2021-10-10T13:31:08Z
2021-10-10T11:32:48Z,42.805,6.029,13.3054,4.60077,2470.507,2021-10-10T13:34:11Z
2021-10-10T11:35:51Z,42.805,6.029,13.3036,4.60062,2470.52,2021-10-10T13:37:14Z
2021-10-10T11:38:54Z,42.805,6.029,13.3044,4.60089,2470.483,2021-10-10T13:40:17Z
2021-10-10T11:41:57Z,42.805,6.029,13.3035,4.60110,2470.53,2021-10-10T13:43:20Z
2021-10-10T11:45:00Z,42.805,6.029,13.3041,4.60070,2470.497,2021-10-10T13:46:23Z
2021-10-10T11:48:03Z,42.805,6.029,13.3044,4.60093,2470.483,2021-10-10T13:49:27Z
2021-10-10T11:51:07Z,42.805,6.029,13.3048,4.60109,2470.483,2021-10-10T13:52:30Z
2021-10-10T11:54:10Z,42.805,6.029,13.3071,4.60104,2470.52,2021-10-10T13:55:33Z
2021-10-10T11:57:13Z,42.805,6.029,13.3054,4.60119,2470.483,2021-10-10T13:58:36Z
2021-10-10T12:00:16Z,42.805,6.029,13.3046,4.60112,2470.497,2021-10-10T14:01:39Z
2021-10-10T12:03:19Z,42.805,6.029,13.3054,4.60074,2470.45,2021-10-10T14:04:42Z
2021-10-10T12:06:22Z,42.805,6.029,13.3038,4.60096,2470.497,2021-10-10T14:07:45Z
2021-10-10T12:09:25Z,42.805,6.029,13.3062,4.60102,2470.474,2021-10-10T14:10:48Z
2021-10-10T12:12:28Z,42.805,6.029,13.3021,4.60107,2470.483,2021-10-10T14:13:52Z
2021-10-10T12:15:32Z,42.805,6.029,13.3041,4.60102,2470.474,2021-10-10T14:16:55Z
2021-10-10T12:18:35Z,42.805,6.029,13.3036,4.60091,2470.474,2021-10-10T14:19:58Z
2021-10-10T12:21:38Z,42.805,6.029,13.3051,4.60086,2470.474,2021-10-10T14:23:01Z
2021-10-10T12:24:41Z,42.805,6.029,13.3046,4.60107,2470.46,2021-10-10T14:26:04Z
2021-10-10T12:27:44Z,42.805,6.029,13.3025,4.60104,2470.483,2021-10-10T14:29:07Z
2021-10-10T12:30:47Z,42.805,6.029,13.3044,4.60119,2470.497,2021-10-10T14:32:10Z
2021-10-10T12:33:50Z,42.805,6.029,13.3059,4.60109,2470.46,2021-10-10T14:35:13Z
2021-10-10T12:36:54Z,42.805,6.029,13.3026,4.60095,2470.46,2021-10-10T14:38:17Z
2021-10-10T12:39:57Z,42.805,6.029,13.3039,4.60094,2470.474,2021-10-10T14:41:20Z
2021-10-10T12:43:00Z,42.805,6.029,13.3046,4.60090,2470.46,2021-10-10T14:44:23Z
2021-10-10T12:46:03Z,42.805,6.029,13.3010,4.60092,2470.45,2021-10-10T14:47:26Z
2021-10-10T12:49:06Z,42.805,6.029,13.3033,4.60099,2470.437,2021-10-10T14:50:29Z
2021-10-10T12:52:09Z,42.805,6.029,13.3022,4.60087,2470.437,2021-10-10T14:53:32Z
2021-10-10T12:55:12Z,42.805,6.029,13.3034,4.60103,2470.437,2021-10-10T14:56:35Z
2021-10-10T12:58:15Z,42.805,6.029,13.3027,4.60097,2470.45,2021-10-10T14:59:38Z
2021-10-10T13:01:19Z,42.805,6.029,13.3021,4.60098,2470.437,2021-10-10T15:02:42Z
2021-10-10T13:04:22Z,42.805,6.029,13.3036,4.60092,2470.46,2021-10-10T15:05:45Z
2021-10-10T13:07:25Z,42.805,6.029,13.3048,4.60070,2470.437,2021-10-10T15:08:48Z
2021-10-10T13:10:28Z,42.805,6.029,13.3032,4.60081,2470.413,2021-10-10T15:11:51Z
2021-10-10T13:13:31Z,42.805,6.029,13.3039,4.60074,2470.413,2021-10-10T15:14:54Z
2021-10-10T13:16:34Z,42.805,6.029,13.3019,4.60090,2470.437,2021-10-10T15:17:57Z
2021-10-10T13:19:37Z,42.805,6.029,13.3036,4.60085,2470.45,2021-10-10T15:21:00Z
2021-10-10T13:22:40Z,42.805,6.029,13.3012,4.60085,2470.437,2021-10-10T15:24:03Z
2021-10-10T13:25:44Z,42.805,6.029,13.3044,4.60062,2470.464,2021-10-10T15:27:07Z
2021-10-10T13:28:47Z,42.805,6.029,13.3038,4.60077,2470.45,2021-10-10T15:30:10Z
2021-10-10T13:31:50Z,42.805,6.029,13.3027,4.60070,2470.437,2021-10-10T15:33:13Z
2021-10-10T13:34:53Z,42.805,6.029,13.3036,4.60073,2470.45,2021-10-10T15:36:16Z
2021-10-10T13:37:56Z,42.805,6.029,13.3036,4.60072,2470.404,2021-10-10T15:39:19Z
2021-10-10T13:40:59Z,42.805,6.029,13.3029,4.60067,2470.413,2021-10-10T15:42:22Z
2021-10-10T13:44:02Z,42.805,6.029,13.3036,4.60071,2470.427,2021-10-10T15:45:25Z
2021-10-10T13:47:05Z,42.805,6.029,13.3036,4.60079,2470.437,2021-10-10T15:48:28Z
2021-10-10T13:50:09Z,42.805,6.029,13.3017,4.60083,2470.45,2021-10-10T15:51:32Z
2021-10-10T13:53:12Z,42.805,6.029,13.3014,4.60078,2470.45,2021-10-10T15:54:35Z
2021-10-10T13:56:15Z,42.805,6.029,13.3021,4.60077,2470.427,2021-10-10T15:57:38Z
2021-10-10T13:59:18Z,42.805,6.029,13.3015,4.60073,2470.437,2021-10-10T16:00:41Z
2021-10-10T14:02:21Z,42.805,6.029,13.3013,4.60057,2470.404,2021-10-10T16:03:44Z
2021-10-10T14:05:24Z,42.805,6.029,13.3015,4.60057,2470.45,2021-10-10T16:06:47Z
2021-10-10T14:08:27Z,42.805,6.029,13.3028,4.60037,2470.404,2021-10-10T16:09:50Z
2021-10-10T14:11:30Z,42.805,6.029,13.3020,4.60068,2470.427,2021-10-10T16:12:54Z
2021-10-10T14:14:34Z,42.805,6.029,13.3026,4.60086,2470.39,2021-10-10T16:15:57Z
2021-10-10T14:17:37Z,42.805,6.029,13.3034,4.60092,2470.45,2021-10-10T16:19:00Z
2021-10-10T14:20:40Z,42.805,6.029,13.3019,4.60074,2470.413,2021-10-10T16:22:03Z
2021-10-10T14:23:43Z,42.805,6.029,13.3029,4.60082,2470.39,2021-10-10T16:25:06Z
2021-10-10T14:26:46Z,42.805,6.029,13.3036,4.60081,2470.39,2021-10-10T16:28:09Z
2021-10-10T14:29:49Z,42.805,6.029,13.3036,4.60082,2470.39,2021-10-10T16:31:12Z
2021-10-10T14:32:52Z,42.805,6.029,13.3017,4.60072,2470.413,2021-10-10T16:34:15Z
2021-10-10T14:35:55Z,42.805,6.029,13.3015,4.60074,2470.427,2021-10-10T16:37:19Z
2021-10-10T14:38:59Z,42.805,6.029,13.3038,4.60072,2470.39,2021-10-10T16:40:22Z
2021-10-10T14:42:02Z,42.805,6.029,13.3021,4.60081,2470.39,2021-10-10T16:43:25Z
2021-10-10T14:45:05Z,42.805,6.029,13.3036,4.60087,2470.39,2021-10-10T16:46:28Z
2021-10-10T14:48:08Z,42.805,6.029,13.3034,4.60093,2470.427,2021-10-10T16:49:31Z
2021-10-10T14:51:11Z,42.805,6.029,13.3043,4.60089,2470.39,2021-10-10T16:52:34Z
2021-10-10T14:54:14Z,42.805,6.029,13.3024,4.60082,2470.404,2021-10-10T16:55:37Z
2021-10-10T14:57:17Z,42.805,6.029,13.3034,4.60059,2470.38,2021-10-10T16:58:40Z
2021-10-10T15:00:21Z,42.805,6.029,13.3045,4.60085,2470.39,2021-10-10T17:01:44Z
2021-10-10T15:03:24Z,42.805,6.029,13.3035,4.60099,2470.38,2021-10-10T17:04:47Z